Location: Newark
(27.9675°N, 86.8869°E)
Time: 12:13:35
(UTC+00:00)

deb Explorer IX - Pass Details

Date: 30 October 2019
Orbit: 546 x 1105 km, 38.8° (Epoch: 14 November)

Event Time Altitude Azimuth Distance (km) Brightness Sun altitude
Rises 02:39:05 0° 247° (WSW) 2,702 ? 26.7°
Reaches altitude 10° 02:41:20 10° 250° (WSW) 1,801 ? 27.1°
Maximum altitude 02:45:22 67° 333° (NNW) 598 ? 27.8°
Drops below altitude 10° 02:49:37 10° 56° (NE) 1,887 ? 28.6°
Sets 02:52:01 0° 59° (ENE) 2,845 ? 29.0°
